Location: Guadanolo
(41.9167°N, 12.9333°E)
Time: 10:02:13
(UTC+00:00)

Terra - Pass Details

Date: 16 September 2019
Orbit: 701 x 703 km, 98.2° (Epoch: 19 October)

Event Time Altitude Azimuth Distance (km) Brightness Sun altitude
Exits shadow 20:19:07 15° 17° (NNE) 1,876 4.2 -32.1°
Drops below altitude 10° 20:20:03 10° 10° (N) 2,179 4.6 -32.3°
Sets 20:22:34 0° 359° (N) 3,102 5.7 -32.6°
